Location: Newark
(47.5833°N, 8.1500°E)
Time: 08:07:46
(UTC+00:00)

Tiros 1 despin weight - Pass Details

Date: 03 November 2020
Orbit: 593 x 642 km, 48.2° (Epoch: 26 November)

Event Time Altitude Azimuth Distance (km) Brightness Sun altitude
Rises 20:59:15 0° 217° (SW) 2,891 - -47.9°
Reaches altitude 10° 21:01:47 10° 206° (SSW) 1,979 - -48.2°
Maximum altitude 21:05:43 30° 146° (SE) 1,115 - -48.7°
Drops below altitude 10° 21:09:38 10° 86° (E) 1,960 - -49.2°
Sets 21:12:08 0° 75° (ENE) 2,858 - -49.5°
